TimeAKDT,TemperatureF,Dew PointF,Humidity,Sea Level PressureIn,VisibilityMPH,Wind Direction,Wind SpeedMPH,Gust SpeedMPH,PrecipitationIn,Events,Conditions,WindDirDegrees,DateUTC
12:53 AM,48.9,37.0,64,29.72,10.0,Calm,Calm,-,N/A,,Clear,0,2013-09-16 08:53:00
1:53 AM,48.0,37.0,66,29.71,10.0,Calm,Calm,-,N/A,,Clear,0,2013-09-16 09:53:00
2:53 AM,46.0,37.9,73,29.70,10.0,Calm,Calm,-,N/A,,Clear,0,2013-09-16 10:53:00
3:53 AM,45.0,37.9,76,29.68,10.0,Calm,Calm,-,N/A,,Clear,0,2013-09-16 11:53:00
4:53 AM,43.0,36.0,76,29.67,10.0,Calm,Calm,-,N/A,,Clear,0,2013-09-16 12:53:00
5:53 AM,42.1,36.0,79,29.66,10.0,Calm,Calm,-,N/A,,Clear,0,2013-09-16 13:53:00
6:53 AM,41.0,35.1,79,29.65,10.0,Calm,Calm,-,N/A,,Clear,0,2013-09-16 14:53:00
7:53 AM,46.0,34.0,63,29.63,10.0,WNW,4.6,-,N/A,,Clear,290,2013-09-16 15:53:00
8:53 AM,45.0,35.1,68,29.62,10.0,Calm,Calm,-,N/A,,Clear,0,2013-09-16 16:53:00
9:53 AM,48.9,39.0,69,29.61,10.0,Calm,Calm,-,N/A,,Clear,0,2013-09-16 17:53:00
10:53 AM,51.1,37.0,59,29.60,10.0,West,3.5,-,N/A,,Clear,270,2013-09-16 18:53:00
11:53 AM,53.1,33.1,47,29.59,10.0,West,3.5,-,N/A,,Clear,270,2013-09-16 19:53:00
12:53 PM,54.0,33.1,45,29.58,10.0,Calm,Calm,-,N/A,,Clear,0,2013-09-16 20:53:00
1:53 PM,55.0,35.1,47,29.56,10.0,West,3.5,-,N/A,,Clear,260,2013-09-16 21:53:00
2:53 PM,55.0,37.9,53,29.55,10.0,Calm,Calm,-,N/A,,Clear,0,2013-09-16 22:53:00
3:53 PM,55.0,37.0,51,29.54,10.0,Calm,Calm,-,N/A,,Clear,0,2013-09-16 23:53:00
4:53 PM,55.9,36.0,47,29.53,10.0,Calm,Calm,-,N/A,,Clear,0,2013-09-17 00:53:00
5:53 PM,55.9,36.0,47,29.52,10.0,Calm,Calm,-,N/A,,Partly Cloudy,0,2013-09-17 01:53:00
6:53 PM,55.9,36.0,47,29.51,10.0,SW,3.5,-,N/A,,Mostly Cloudy,230,2013-09-17 02:53:00
7:53 PM,54.0,36.0,51,29.51,10.0,Calm,Calm,-,N/A,,Overcast,0,2013-09-17 03:53:00
8:53 PM,54.0,37.0,53,29.51,10.0,Calm,Calm,-,N/A,,Overcast,0,2013-09-17 04:53:00
9:53 PM,52.0,42.1,69,29.51,10.0,Calm,Calm,-,N/A,,Overcast,0,2013-09-17 05:53:00
10:53 PM,51.1,42.1,71,29.51,10.0,Calm,Calm,-,0.00,Rain,Light Rain,0,2013-09-17 06:53:00
11:53 PM,50.0,44.1,80,29.50,10.0,Calm,Calm,-,0.00,,Overcast,0,2013-09-17 07:53:00